HVN651 VVTS-WSSS

Flight info

Callsign HVN651
Flight time N/A
Altitude 35000
Route NIXIV5H NIXIV L643 CN L642 ESPOB/N0455F350 Q801 ESBUM Q802 ELALO ELALO1B
Aircraft A321/M-SDE3FGHIRWY/LB1

Departure

Time 2026-05-05 20:22
Airport Tan Son Nhat International Airport (VVTS)

Arrival

Time N/A
Airport Singapore Changi Airport (WSSS)
Time Latitude Longitude Altitude Speed Heading
2026-05-05 20:00 10.81393 106.66117 37 ft 0 kts 96°
2026-05-05 20:14 10.81394 106.66099 37 ft 3 kts 96°
2026-05-05 20:14 10.81396 106.66081 37 ft 3 kts 96°
2026-05-05 20:15 10.81398 106.66062 37 ft 3 kts 82°
2026-05-05 20:15 10.81393 106.66043 37 ft 3 kts 53°
2026-05-05 20:15 10.81379 106.66030 35 ft 3 kts 24°
2026-05-05 20:15 10.81365 106.66025 35 ft 0 kts
2026-05-05 20:16 10.81367 106.66026 36 ft 1 kts
2026-05-05 20:16 10.81382 106.66027 35 ft 6 kts
2026-05-05 20:17 10.81442 106.66033 36 ft 12 kts
2026-05-05 20:17 10.81593 106.66047 37 ft 21 kts
2026-05-05 20:17 10.81698 106.66058 37 ft 23 kts
2026-05-05 20:17 10.81826 106.66051 37 ft 9 kts 316°
2026-05-05 20:18 10.81836 106.66011 37 ft 8 kts 263°
2026-05-05 20:18 10.81818 106.65959 35 ft 8 kts 249°
2026-05-05 20:18 10.81781 106.65858 36 ft 23 kts 250°
2026-05-05 20:18 10.81704 106.65656 36 ft 36 kts 248°
2026-05-05 20:19 10.81612 106.65414 34 ft 37 kts 249°
2026-05-05 20:19 10.81523 106.65177 38 ft 35 kts 249°
2026-05-05 20:19 10.81437 106.64950 42 ft 33 kts 249°
2026-05-05 20:19 10.81355 106.64735 41 ft 33 kts 249°
2026-05-05 20:20 10.81270 106.64516 39 ft 33 kts 249°
2026-05-05 20:20 10.81188 106.64290 35 ft 34 kts 252°
2026-05-05 20:20 10.81103 106.64066 34 ft 34 kts 247°
2026-05-05 20:20 10.81028 106.63869 36 ft 17 kts 253°
2026-05-05 20:21 10.81091 106.63792 34 ft 16 kts 341°
2026-05-05 20:21 10.81170 106.63779 33 ft 9 kts 36°
2026-05-05 20:21 10.81196 106.63842 32 ft 8 kts 69°
2026-05-05 20:21 10.81220 106.63908 31 ft 16 kts 69°
2026-05-05 20:22 10.81348 106.64248 35 ft 87 kts 69°
2026-05-05 20:22 10.81638 106.65013 40 ft 142 kts 69°
2026-05-05 20:22 10.82050 106.66070 131 ft 175 kts 68°
2026-05-05 20:22 10.82509 106.67197 768 ft 174 kts 67°
2026-05-05 20:23 10.82990 106.68339 1379 ft 175 kts 69°
2026-05-05 20:23 10.83470 106.69495 1915 ft 181 kts 69°
2026-05-05 20:23 10.83987 106.70747 2112 ft 203 kts 68°
2026-05-05 20:23 10.84567 106.72158 2357 ft 229 kts 68°
2026-05-05 20:24 10.85212 106.73728 2727 ft 250 kts 68°
2026-05-05 20:24 10.85707 106.75456 3373 ft 259 kts 87°
2026-05-05 20:24 10.85358 106.77237 4093 ft 266 kts 116°
2026-05-05 20:24 10.84161 106.78695 4828 ft 274 kts 136°
2026-05-05 20:25 10.82729 106.79992 5594 ft 277 kts 137°
2026-05-05 20:25 10.81269 106.81298 6385 ft 280 kts 137°
2026-05-05 20:25 10.79626 106.82385 7087 ft 286 kts 157°
2026-05-05 20:25 10.77655 106.82730 7795 ft 292 kts 182°
2026-05-05 20:26 10.75623 106.82477 8528 ft 295 kts 186°
2026-05-05 20:26 10.73582 106.82181 9250 ft 298 kts 186°
2026-05-05 20:26 10.71516 106.81880 9932 ft 301 kts 186°
2026-05-05 20:26 10.69436 106.81581 10341 ft 315 kts 186°
2026-05-05 20:27 10.67185 106.81262 10468 ft 337 kts 186°
2026-05-05 20:27 10.64800 106.80928 10756 ft 352 kts 186°
2026-05-05 20:27 10.62358 106.80587 11313 ft 357 kts 186°
2026-05-05 20:27 10.59887 106.80241 11931 ft 360 kts 186°
2026-05-05 20:28 10.57397 106.79891 12555 ft 363 kts 186°
2026-05-05 20:28 10.54882 106.79536 13171 ft 366 kts 186°
2026-05-05 20:28 10.52341 106.79176 13768 ft 369 kts 186°
2026-05-05 20:28 10.49780 106.78817 14309 ft 372 kts 186°
2026-05-05 20:29 10.47238 106.78461 14837 ft 375 kts 186°
2026-05-05 20:29 10.44634 106.78096 15371 ft 378 kts 186°
2026-05-05 20:29 10.42011 106.77727 15899 ft 381 kts 186°
2026-05-05 20:29 10.39373 106.77357 16424 ft 384 kts 186°
2026-05-05 20:30 10.36714 106.76986 16938 ft 387 kts 186°
2026-05-05 20:30 10.34025 106.76612 17454 ft 390 kts 186°
2026-05-05 20:30 10.31324 106.76235 17943 ft 393 kts 186°
2026-05-05 20:30 10.28604 106.75854 18394 ft 396 kts 187°
2026-05-05 20:31 10.25857 106.75466 18813 ft 399 kts 187°
2026-05-05 20:31 10.23096 106.75075 19235 ft 401 kts 187°
2026-05-05 20:31 10.20359 106.74689 19654 ft 403 kts 187°
2026-05-05 20:31 10.17570 106.74298 20059 ft 405 kts 187°
2026-05-05 20:32 10.14762 106.73905 20466 ft 408 kts 186°
2026-05-05 20:32 10.11942 106.73513 20872 ft 410 kts 186°
2026-05-05 20:32 10.09108 106.73122 21264 ft 412 kts 186°
2026-05-05 20:32 10.06258 106.72728 21671 ft 414 kts 186°
2026-05-05 20:33 10.03388 106.72331 22072 ft 416 kts 186°
2026-05-05 20:33 10.00511 106.71931 22450 ft 419 kts 186°
2026-05-05 20:33 9.97649 106.71529 22820 ft 421 kts 187°
2026-05-05 20:33 9.94743 106.71119 23193 ft 423 kts 187°
2026-05-05 20:34 9.91812 106.70704 23524 ft 425 kts 187°
2026-05-05 20:34 9.88874 106.70289 23829 ft 427 kts 187°
2026-05-05 20:34 9.85922 106.69875 24135 ft 429 kts 187°
2026-05-05 20:34 9.82957 106.69461 24452 ft 431 kts 187°
2026-05-05 20:35 9.79976 106.69047 24753 ft 433 kts 187°
2026-05-05 20:35 9.76978 106.68632 25074 ft 435 kts 187°
2026-05-05 20:35 9.73971 106.68216 25383 ft 437 kts 187°
2026-05-05 20:35 9.70955 106.67797 25675 ft 439 kts 187°
2026-05-05 20:36 9.67916 106.67373 25986 ft 440 kts 187°
2026-05-05 20:36 9.64878 106.66950 26299 ft 442 kts 187°
2026-05-05 20:36 9.61823 106.66526 26586 ft 444 kts 187°
2026-05-05 20:36 9.58795 106.66105 26870 ft 446 kts 187°
2026-05-05 20:37 9.55706 106.65675 27152 ft 448 kts 187°
2026-05-05 20:37 9.52614 106.65245 27438 ft 449 kts 187°
2026-05-05 20:37 9.49505 106.64813 27720 ft 451 kts 187°
2026-05-05 20:37 9.46385 106.64377 27997 ft 453 kts 187°
2026-05-05 20:38 9.43255 106.63939 28263 ft 455 kts 187°
2026-05-05 20:38 9.40109 106.63503 28531 ft 456 kts 185°
2026-05-05 20:38 9.36935 106.63350 28783 ft 457 kts 180°
2026-05-05 20:38 9.33787 106.63319 29028 ft 459 kts 180°
2026-05-05 20:39 9.30587 106.63291 29277 ft 461 kts 180°
2026-05-05 20:39 9.27375 106.63260 29528 ft 462 kts 180°
2026-05-05 20:39 9.24146 106.63225 29795 ft 464 kts 180°
2026-05-05 20:39 9.20910 106.63187 30006 ft 466 kts 180°
2026-05-05 20:40 9.17665 106.63147 30212 ft 468 kts 180°
2026-05-05 20:40 9.14383 106.63109 30430 ft 469 kts 180°
2026-05-05 20:40 9.11115 106.63073 30675 ft 470 kts 180°
2026-05-05 20:40 9.07881 106.63036 30977 ft 469 kts 180°
2026-05-05 20:41 9.04612 106.62996 31280 ft 469 kts 180°
2026-05-05 20:41 9.01349 106.62956 31583 ft 468 kts 180°
2026-05-05 20:41 8.98085 106.62920 31880 ft 468 kts 179°
2026-05-05 20:41 8.94824 106.62885 32183 ft 468 kts 179°
2026-05-05 20:42 8.91556 106.62851 32496 ft 468 kts 179°
2026-05-05 20:42 8.88339 106.62816 32799 ft 467 kts 179°
2026-05-05 20:42 8.85088 106.62781 33112 ft 467 kts 179°
2026-05-05 20:42 8.81826 106.62743 33420 ft 467 kts 179°
2026-05-05 20:43 8.78573 106.62700 33734 ft 466 kts 180°
2026-05-05 20:43 8.75372 106.62388 34000 ft 468 kts 189°
2026-05-05 20:43 8.72222 106.61528 34252 ft 469 kts 199°